Location: *
(51.4660°N, 0.3360°W)
Time: 16:10:40
(UTC+00:00)

ARGOS - Pass Details

Date: 19 September 2019
Orbit: 821 x 834 km, 98.5° (Epoch: 22 October)

Event Time Altitude Azimuth Distance (km) Brightness Sun altitude
Exits shadow 18:53:49 - 131° (SE) 2,774 5.3 -8.0°
Reaches altitude 10° 18:54:47 10° 127° (SE) 2,423 5.0 -8.1°
Maximum altitude 18:59:37 36° 63° (ENE) 1,301 3.8 -8.9°
Drops below altitude 10° 19:04:29 10° 358° (N) 2,445 5.8 -9.6°
Sets 19:07:01 0° 351° (N) 3,385 6.7 -10.0°
